STARLINK-33811, 63504

Orbit data source: Space-Track

STARLINK-33811, 63504 is a payload satellite owned by SpaceX/Seattle (US) in LEO that was launched on Mon, 07 Apr 2025 UTC via an FALCON 9 launch vehicle from the Air Force Western Test Range (AFWTR). Payload-class satellites include a variety of spacecraft equipped with specific instruments for various scientific and technological missions. These include communications satellites like Starlink; space stations such as the ISS; scientific satellites like the Hubble; Earth observation satellites from companies like Planet Labs, Umbra, and HawkEye 360; GPS; miniature CubeSats for education and research; and military/defense satellites.

Loading next visibility...
Identifier
63504, 2025-071M
Orbit
LEO
Last TLE update
10 hours ago
Origin
Manufacturer
SpaceX/Seattle
Mission
Operational Commercial Communications
Bus & Motor
STARLINK V2MO, Unknown motor
Mass
575 kg wet, ~530 kg dry
Launch date (UTC)
2025-04-07 (3 months ago)
Launch vehicle
FALCON 9
Launch site
Air Force Western Test Range (AFWTR)
Object type
Payload
Rocket body
Debris
Shape & HBR
Box + 1 Pan, 29 m
Radar Cross Section
41.120 m², Large (>1 m²)

Expand to show TLE details & history

TLE from 10 hours ago
0 STARLINK-33811
1 63504U 25071M   25183.80376959  .00033349  00000-0  83993-3 0  9996
2 63504  53.1578 221.1581 0001468  87.2964 272.8209 15.39624146 14448
Epoch: 2025-07-02T19:17Z
TLE epoch observation values (Epoch: 2025-07-02T19:17:25.692Z)
Latitude
-0.00001°
Longitude
10.72142°
Altitude
448.074 km
Speed
7.645 km/s
True Right ascension
14h 44m 37s
True Declination
0° 00' 00"
Sunlit
Object was in full shadow at epoch
Visualization orbit readout
Latitude
4.41368°
Longitude
-174.5595°
Altitude
447.501 km
Speed
7.645 km/s
Apparent Right ascension
03h 32m 11s
Apparent Declination
-17° 55' 36"
Sunlit
Object is in daylight
Visualization observer readout
Local Sidereal Time
17:09:02
Azimuth
50.582° ENE
Elevation
-59.661°
Doppler factor
1
Orbital elements
Apogee altitude
448.48 km
Perigee altitude
446.476 km
Semi-major axis
6,825.615 km
Eccentricity
0.00015
Inclination
53.1578°
RAAN
221.1581°
Arg. of periapsis
87.2964°
True anomaly
Unknown
Mean anomaly
272.8209°
Eccentric anomaly
Unknown
Mean motion
3.84885 °/min
Orbital period
93.53 mins
BSTAR
0.00083993
Loading maneuver chart data...
Loading SW <> Apogee altitude chart data...
Loading historical data...
Loading historical data...
Loading historical data...
Loading historical data...
Loading historical data...
Loading historical data...
Loading historical data...

STARLINK-33811 Visibility forecast

Observer location: undefined°, undefined°

Span
Click to sort rows by Start time (UTC) header in descending order
Start Az.
Max El. time (UTC)
Max El. Az.
Max El.
End time (UTC)
End Az.
5 mins2025-07-03 06:25:32.136Z274.691° WNW2025-07-03 06:28:32.136Z343.217° N23.774°2025-07-03 06:30:32.136Z24.406° NE
4 mins2025-07-03 11:21:32.136Z342.816° N2025-07-03 11:23:32.136Z47.526° ENE28.579°2025-07-03 11:25:32.136Z92.3° ESE
4 mins2025-07-03 12:58:32.136Z273.972° WNW2025-07-03 13:00:32.136Z222.669° SW24.169°2025-07-03 13:02:32.136Z177.936° S
4 mins2025-07-04 04:10:32.136Z175.893° S2025-07-04 04:12:32.136Z124.906° SE23.802°2025-07-04 04:14:32.136Z80.841° E
|